Date,TemperatureHighF,TemperatureAvgF,TemperatureLowF,DewpointHighF,DewpointAvgF,DewpointLowF,HumidityHigh,HumidityAvg,HumidityLow,PressureMaxIn,PressureMinIn,WindSpeedMaxMPH,WindSpeedAvgMPH,GustSpeedMaxMPH,PrecipitationSumIn
2013-1-1,76.0,72.3,68.0,64.0,61.2,57.0,83,68,61,30.18,30.03,11,3,19,0.00
2013-1-2,76.0,70.9,65.0,68.0,65.3,62.0,92,83,72,30.08,29.98,7,1,11,0.00
2013-1-3,78.0,72.9,68.0,69.0,67.0,64.0,91,82,70,30.11,30.01,7,2,12,0.00
2013-1-4,79.0,72.8,67.0,72.0,68.3,65.0,93,86,76,30.20,30.08,3,0,8,0.00
2013-1-5,75.0,70.8,67.0,70.0,67.5,65.0,94,89,81,30.23,30.13,4,1,10,0.11
2013-1-6,79.0,74.9,69.0,72.0,69.8,67.0,93,84,77,30.17,30.05,6,2,12,0.07
2013-1-7,76.0,71.5,69.0,69.0,67.8,66.0,93,88,74,30.15,30.05,3,1,9,0.34
2013-1-8,80.0,76.2,72.0,73.0,71.0,69.0,90,84,77,30.18,30.05,6,2,15,0.07
2013-1-9,80.0,76.7,75.0,72.0,70.5,68.0,85,81,76,30.26,30.13,6,3,16,0.00
2013-1-10,79.0,75.8,74.0,69.0,66.8,64.0,81,74,62,30.28,30.16,5,3,17,0.00
2013-1-11,79.0,75.6,74.0,69.0,67.6,66.0,81,77,70,30.23,30.13,6,3,14,0.00
2013-1-12,79.0,75.4,73.0,69.0,66.9,64.0,82,75,69,30.16,30.07,6,2,15,0.00
2013-1-13,78.0,74.8,73.0,67.0,65.4,61.0,82,73,65,30.11,30.05,7,3,16,0.00
2013-1-14,77.0,74.4,72.0,66.0,64.0,61.0,75,70,63,30.15,30.09,5,2,11,0.00
2013-1-15,78.0,74.7,73.0,68.0,66.2,63.0,79,75,70,30.12,30.02,4,1,11,0.00
2013-1-16,78.0,75.0,71.0,70.0,67.1,62.0,88,77,68,30.09,30.00,8,2,16,0.17
2013-1-17,78.0,70.8,61.0,71.0,66.3,54.0,94,86,77,30.08,29.95,10,3,22,0.33
2013-1-18,70.0,62.2,54.0,61.0,53.4,46.0,80,73,64,30.22,30.07,6,3,17,0.09
2013-1-19,70.0,67.6,63.0,67.0,63.2,58.0,94,86,66,30.20,30.08,4,1,9,0.82
2013-1-20,77.0,69.9,64.0,68.0,65.4,62.0,96,86,72,30.13,29.99,3,0,7,0.01
2013-1-21,77.0,72.3,67.0,70.0,67.3,63.0,92,84,75,30.05,29.95,6,1,13,0.63
2013-1-22,74.0,68.2,62.0,64.0,60.0,55.0,91,76,60,30.18,29.98,7,3,15,0.01
2013-1-23,72.0,69.2,63.0,58.0,54.8,52.0,79,60,54,30.27,30.17,5,2,15,0.00
2013-1-24,72.0,65.5,59.0,58.0,55.1,52.0,85,70,58,30.27,30.17,5,2,9,0.00
2013-1-25,75.0,67.0,60.0,61.0,56.0,51.0,79,68,52,30.26,30.16,4,1,12,0.00
2013-1-26,75.0,68.2,60.0,63.0,59.3,53.0,87,74,59,30.23,30.14,5,1,10,0.00
2013-1-27,76.0,72.7,70.0,65.0,62.9,61.0,76,71,61,30.26,30.17,3,1,10,0.00
2013-1-28,77.0,74.1,72.0,67.0,64.3,62.0,79,72,63,30.29,30.20,5,2,13,0.00
2013-1-29,78.0,74.3,73.0,69.0,66.6,64.0,82,77,72,30.21,30.11,7,3,14,0.00
2013-1-30,77.0,74.0,72.0,68.0,65.9,63.0,85,76,70,30.11,29.96,8,5,19,0.00
2013-1-31,74.0,66.2,61.0,69.0,56.8,42.0,89,72,49,30.15,29.97,7,3,23,0.00
2013-2-1,71.0,63.8,54.0,58.0,49.9,40.0,69,61,49,30.24,30.13,7,4,15,0.00
2013-2-2,72.0,66.2,58.0,56.0,51.5,40.0,71,60,51,30.24,30.09,4,1,9,0.00
2013-2-3,72.0,64.9,57.0,57.0,51.3,44.0,85,63,40,30.15,30.04,7,2,13,0.00
2013-2-4,71.0,63.2,53.0,56.0,48.9,40.0,78,61,41,30.12,30.01,4,1,9,0.00
2013-2-5,75.0,68.0,58.0,64.0,58.8,53.0,86,73,61,30.07,29.98,5,1,11,0.00
2013-2-6,77.0,71.0,63.0,66.0,63.4,60.0,90,77,67,30.09,30.00,4,1,10,0.02
2013-2-7,77.0,73.3,71.0,67.0,64.5,62.0,82,74,68,30.06,29.93,7,2,13,0.02
2013-2-8,81.0,73.7,70.0,71.0,68.0,65.0,92,83,65,30.01,29.90,5,2,12,0.04
2013-2-9,76.0,70.8,65.0,68.0,63.0,58.0,91,77,70,30.15,29.99,3,1,10,0.04
2013-2-10,74.0,71.9,71.0,65.0,62.1,59.0,78,72,65,30.23,30.12,6,2,16,0.00
2013-2-11,76.0,72.9,71.0,66.0,63.9,62.0,77,73,69,30.20,30.10,6,4,16,0.00
2013-2-12,78.0,74.3,71.0,70.0,67.3,65.0,85,79,73,30.10,29.96,10,5,18,0.00
2013-2-13,79.0,75.3,73.0,72.0,70.4,69.0,90,85,77,30.00,29.89,11,5,21,0.00
2013-2-14,81.0,72.5,63.0,72.0,68.2,61.0,93,86,67,29.99,29.84,14,3,22,0.83
2013-2-15,72.0,66.6,63.0,67.0,64.4,61.0,95,92,84,29.99,29.93,4,1,11,1.92
2013-2-16,73.0,65.1,55.0,63.0,56.3,45.0,95,76,39,30.06,29.86,9,4,20,0.09
2013-2-17,57.0,52.1,46.0,46.0,31.8,21.0,74,48,28,30.28,30.06,10,4,21,0.01
2013-2-18,68.0,59.1,48.0,56.0,46.2,36.0,69,62,52,30.30,30.18,6,2,13,0.00
2013-2-19,74.0,70.8,68.0,66.0,61.5,55.0,86,73,64,30.19,30.07,7,4,20,0.00
2013-2-20,75.0,70.1,65.0,67.0,64.4,60.0,91,83,63,30.09,30.00,4,1,10,0.00
2013-2-21,77.0,73.7,71.0,68.0,65.7,63.0,84,76,69,30.07,29.97,5,2,11,0.00
2013-2-22,78.0,75.0,73.0,71.0,69.5,66.0,86,83,77,30.08,29.99,6,4,14,0.00
2013-2-23,79.0,75.5,73.0,72.0,70.4,68.0,89,84,80,30.03,29.91,9,6,19,0.00
2013-2-24,80.0,75.7,73.0,74.0,71.9,69.0,94,88,75,29.98,29.88,7,2,16,0.00
2013-2-25,80.0,75.5,71.0,73.0,71.2,68.0,92,86,80,29.90,29.80,9,3,18,0.00
2013-2-26,80.0,77.5,75.0,74.0,71.8,70.0,88,83,75,29.88,29.78,11,7,21,0.00
2013-2-27,76.0,70.9,66.0,72.0,66.4,63.0,92,85,68,29.95,29.84,6,2,13,0.28
2013-2-28,69.0,65.0,60.0,64.0,54.6,50.0,92,70,51,29.98,29.88,6,2,14,0.04
2013-3-1,65.0,62.4,59.0,56.0,51.9,47.0,82,69,62,29.97,29.88,6,2,13,0.01
2013-3-2,64.0,57.8,54.0,48.0,43.0,38.0,69,58,45,30.02,29.93,10,4,22,0.01
2013-3-3,61.0,55.1,51.0,45.0,42.6,40.0,76,63,51,30.11,29.95,9,3,17,0.00
2013-3-4,63.0,54.3,44.0,47.0,40.3,33.0,74,60,38,30.19,30.09,8,2,19,0.00
2013-3-5,71.0,63.1,53.0,57.0,52.6,43.0,85,70,60,30.16,30.07,6,2,12,0.00
2013-3-6,76.0,66.1,54.0,63.0,51.8,28.0,87,63,27,30.08,29.93,10,3,21,0.00
2013-3-7,68.0,58.2,48.0,54.0,44.1,36.0,82,60,43,30.16,30.05,6,2,14,0.00
2013-3-8,71.0,63.6,55.0,55.0,52.5,47.0,88,68,48,30.18,30.08,4,1,11,0.00
2013-3-9,72.0,65.0,57.0,59.0,54.0,50.0,82,68,59,30.17,30.08,4,2,13,0.00
2013-3-10,74.0,69.9,67.0,62.0,56.3,53.0,72,62,56,30.14,30.04,3,1,10,0.00
2013-3-11,75.0,71.3,69.0,62.0,60.4,58.0,73,69,61,30.09,29.94,6,3,14,0.00
2013-3-12,77.0,73.4,71.0,70.0,65.5,61.0,83,77,70,29.99,29.90,11,5,21,0.00
2013-3-13,72.0,66.2,58.0,65.0,57.2,50.0,87,74,53,30.10,29.96,6,3,18,0.00
2013-3-14,68.0,61.9,56.0,52.0,47.9,35.0,81,62,29,30.18,30.07,8,3,18,0.00
2013-3-15,70.0,62.6,55.0,55.0,50.1,43.0,77,64,53,30.23,30.13,5,2,12,0.00
2013-3-16,72.0,65.7,58.0,56.0,53.9,52.0,86,67,53,30.17,30.08,5,2,13,0.00
2013-3-17,74.0,69.0,61.0,62.0,58.1,55.0,82,69,60,30.13,30.01,6,2,13,0.00
2013-3-18,76.0,72.3,69.0,69.0,65.3,61.0,90,79,72,30.06,29.96,9,4,17,0.06
2013-3-19,77.0,72.1,69.0,70.0,67.2,64.0,94,85,65,29.99,29.82,12,2,19,0.09
2013-3-20,77.0,71.5,65.0,69.0,65.1,58.0,94,81,56,29.96,29.79,7,2,17,0.01
2013-3-21,71.0,66.8,63.0,61.0,56.2,50.0,89,70,50,29.93,29.81,5,2,15,0.01
2013-3-22,73.0,68.2,62.0,69.0,59.5,54.0,88,74,63,29.99,29.88,4,2,13,0.00
2013-3-23,79.0,75.6,72.0,74.0,71.8,69.0,93,88,80,29.97,29.80,9,5,21,0.01
2013-3-24,87.0,79.2,74.0,73.0,71.5,69.0,94,79,56,29.87,29.67,16,6,26,0.01
2013-3-25,78.0,74.3,68.0,72.0,61.0,42.0,91,66,37,29.97,29.73,7,3,16,0.06
2013-3-26,67.0,61.0,54.0,45.0,38.2,32.0,63,43,30,30.19,29.97,9,6,20,0.05
2013-3-27,66.0,57.0,47.0,50.0,42.8,35.0,70,59,51,30.22,30.14,7,3,17,0.00
2013-3-28,69.0,62.0,53.0,53.0,46.1,37.0,71,57,35,30.24,30.15,6,2,11,0.00
2013-3-29,72.0,65.6,59.0,55.0,50.7,42.0,66,59,48,30.27,30.18,5,1,13,0.00
2013-3-30,73.0,68.9,66.0,56.0,53.1,50.0,65,58,46,30.24,30.15,4,1,13,0.00
2013-3-31,77.0,72.1,68.0,66.0,60.7,-99.9,81,70,62,30.18,30.03,7,3,19,0.00
2013-4-1,77.0,74.3,72.0,71.0,67.5,63.0,88,80,65,30.04,29.94,10,5,18,0.00
2013-4-2,79.0,72.9,66.0,68.0,65.3,63.0,93,78,65,30.07,29.97,5,1,11,0.00
2013-4-3,79.0,75.5,72.0,70.0,68.0,65.0,84,78,70,30.05,29.98,6,2,14,0.00
2013-4-4,80.0,74.6,68.0,73.0,69.4,65.0,93,84,78,30.03,29.89,9,4,19,0.48
2013-4-5,74.0,68.6,66.0,71.0,65.5,63.0,93,90,81,29.96,29.80,8,2,17,1.72
2013-4-6,76.0,68.0,59.0,67.0,61.1,56.0,93,79,67,30.07,29.90,6,3,15,0.10
2013-4-7,74.0,71.9,69.0,66.0,63.8,62.0,88,76,69,30.12,30.00,3,1,13,0.40
2013-4-8,78.0,74.1,70.0,65.0,62.2,61.0,73,67,57,30.11,30.02,4,1,9,0.03
2013-4-9,79.0,75.1,73.0,70.0,66.4,64.0,80,75,69,30.13,30.03,4,1,11,0.00
2013-4-10,81.0,76.6,74.0,73.0,70.0,67.0,85,80,73,30.09,29.98,6,2,14,0.00
2013-4-11,80.0,77.2,75.0,73.0,71.2,69.0,87,82,75,30.00,29.88,7,5,18,0.01
2013-4-12,81.0,78.4,77.0,76.0,73.9,72.0,90,86,82,29.93,29.85,11,6,22,0.04
2013-4-13,81.0,77.6,74.0,75.0,72.6,70.0,91,85,72,29.97,29.86,9,3,16,0.66
2013-4-14,82.0,78.7,76.0,74.0,73.4,72.0,91,84,77,29.95,29.88,7,4,16,0.01
2013-4-15,83.0,77.8,72.0,77.0,73.6,68.0,91,87,78,30.04,29.91,9,3,16,0.43
2013-4-16,83.0,78.7,73.0,75.0,73.1,68.0,91,83,73,30.09,30.00,5,1,10,0.18
2013-4-17,81.0,78.0,76.0,72.0,70.7,69.0,85,78,70,30.09,30.00,5,2,11,0.00
2013-4-18,83.0,79.0,76.0,74.0,70.8,69.0,81,76,69,30.04,29.96,6,2,14,0.00
2013-4-19,83.0,79.9,77.0,74.0,72.3,70.0,84,78,71,30.03,29.95,9,5,17,0.00
2013-4-20,83.0,78.1,72.0,76.0,72.9,68.0,91,84,75,30.05,29.91,7,3,17,0.46
2013-4-21,81.0,76.2,72.0,74.0,71.8,70.0,93,86,74,30.07,29.97,5,2,13,0.60
2013-4-22,79.0,74.2,70.0,72.0,69.6,67.0,92,86,74,30.03,29.91,6,1,11,0.36
2013-4-23,80.0,74.3,68.0,70.0,66.9,63.0,93,79,63,30.06,29.93,6,3,17,0.21
2013-4-24,81.0,75.5,73.0,68.0,62.6,-99.9,72,66,60,30.11,30.01,4,1,14,0.00
2013-4-25,79.0,75.8,73.0,64.0,62.6,61.0,70,64,57,30.17,30.06,4,1,10,0.00
2013-4-26,79.0,75.3,72.0,67.0,64.0,62.0,73,68,64,30.20,30.09,5,1,11,0.00
2013-4-27,80.0,76.0,73.0,68.0,64.8,62.0,79,69,62,30.18,30.06,5,1,11,0.00
2013-4-28,81.0,76.5,73.0,67.0,63.7,-99.9,80,68,60,30.10,29.98,5,2,13,0.02
2013-4-29,81.0,76.7,75.0,71.0,68.1,64.0,82,75,67,30.02,29.92,6,3,14,0.00
2013-4-30,81.0,76.2,72.0,72.0,69.8,68.0,90,81,73,29.98,29.91,11,3,19,0.43
2013-5-1,82.0,76.0,71.0,74.0,70.9,67.0,90,84,73,29.98,29.89,4,1,9,0.48
2013-5-2,79.0,73.0,67.0,73.0,69.2,65.0,95,88,78,29.93,29.75,8,3,19,4.05
2013-5-3,81.0,74.6,68.0,72.0,68.6,66.0,94,82,62,29.79,29.66,9,2,19,0.23
2013-5-4,85.0,76.7,69.0,69.0,66.8,64.0,91,73,52,29.78,29.67,6,2,16,0.01
2013-5-5,80.0,73.8,69.0,66.0,62.3,56.0,89,69,48,29.91,29.74,8,3,15,0.00
2013-5-6,80.0,72.2,62.0,66.0,59.2,54.0,81,65,45,30.00,29.90,8,2,14,0.00
2013-5-7,79.0,72.6,65.0,68.0,62.0,58.0,85,70,52,30.04,29.95,5,2,16,0.00
2013-5-8,80.0,73.5,66.0,69.0,62.2,57.0,84,69,50,30.11,30.02,5,1,10,0.00
2013-5-9,83.0,76.4,68.0,74.0,67.4,58.0,83,74,62,30.12,30.05,4,1,10,0.00
2013-5-10,84.0,77.7,73.0,74.0,69.3,-99.9,86,79,66,30.11,30.01,6,2,12,0.03
2013-5-11,83.0,79.1,76.0,75.0,73.0,70.0,88,82,71,30.06,29.97,9,3,21,0.10
2013-5-12,83.0,77.9,73.0,75.0,71.1,-99.9,92,82,72,30.04,29.93,9,3,20,0.23
2013-5-13,84.0,77.2,72.0,75.0,71.5,69.0,93,83,64,30.06,29.98,5,1,11,0.22
2013-5-14,78.0,76.6,75.0,70.0,63.0,57.0,77,63,52,30.15,30.03,6,3,13,0.00
2013-5-15,80.0,76.0,73.0,66.0,61.9,58.0,69,62,53,30.16,30.07,3,1,13,0.00
2013-5-16,81.0,71.9,73.0,66.0,40.7,-99.9,69,62,54,30.10,30.02,5,1,11,0.00
2013-5-17,83.0,77.6,75.0,73.0,62.5,-99.9,87,74,62,30.06,29.98,4,2,12,0.07
2013-5-18,84.0,79.4,77.0,74.0,71.6,69.0,85,77,69,30.09,30.02,5,2,13,0.01
2013-5-19,84.0,79.2,76.0,71.0,69.8,69.0,80,73,64,30.08,29.98,5,1,13,0.00
2013-5-20,79.0,76.2,71.0,74.0,71.7,69.0,94,86,78,30.04,29.95,8,2,17,2.97
2013-5-21,80.0,75.3,71.0,73.0,70.7,68.0,94,86,73,30.04,29.91,6,2,14,2.44
2013-5-22,82.0,76.8,71.0,75.0,71.9,68.0,93,85,72,29.94,29.87,9,2,20,1.31
2013-5-23,89.0,81.0,75.0,76.0,73.1,68.0,90,78,50,29.98,29.89,6,2,11,0.04
2013-5-24,86.0,80.6,75.0,77.0,73.8,71.0,91,80,63,30.04,29.92,4,1,11,0.01
2013-5-25,83.0,79.9,77.0,74.0,69.4,66.0,85,71,60,30.13,30.01,6,2,14,0.01
2013-5-26,82.0,78.7,76.0,69.0,67.1,64.0,76,68,60,30.15,30.07,6,2,13,0.00
2013-5-27,83.0,79.4,76.0,74.0,70.8,66.0,82,75,70,30.13,30.04,5,1,15,0.00
2013-5-28,81.0,77.5,75.0,73.0,71.9,70.0,90,83,76,30.08,30.01,7,3,22,0.72
2013-5-29,79.0,75.9,72.0,73.0,71.2,68.0,93,85,77,30.07,30.00,8,3,21,1.78
2013-5-30,82.0,78.0,75.0,75.0,71.7,69.0,87,81,76,30.05,29.98,8,5,22,0.10
2013-5-31,83.0,78.5,76.0,75.0,73.2,71.0,88,84,75,30.03,29.98,7,3,17,0.12
2013-6-1,82.0,77.3,75.0,77.0,73.8,72.0,92,89,82,30.01,29.93,7,2,16,0.22
2013-6-2,84.0,78.5,74.0,76.0,72.4,-99.9,94,85,72,29.98,29.90,7,1,17,0.13
2013-6-3,84.0,79.4,75.0,77.0,73.5,71.0,90,82,74,30.01,29.89,7,2,14,0.03
2013-6-4,82.0,78.1,73.0,77.0,73.7,70.0,94,87,77,30.03,29.94,3,0,11,0.22
2013-6-5,83.0,80.7,79.0,77.0,75.3,73.0,88,84,81,30.01,29.87,5,1,12,0.02
2013-6-6,86.0,79.8,75.0,79.0,75.5,71.0,92,87,76,29.89,29.77,12,7,31,0.87
2013-6-7,86.0,77.2,72.0,78.0,73.7,70.0,95,89,74,29.99,29.83,14,4,21,4.95
2013-6-8,85.0,79.9,75.0,79.0,75.5,72.0,93,86,77,30.08,29.94,10,3,18,0.39
2013-6-9,85.0,81.6,79.0,77.0,74.9,73.0,84,80,74,30.09,30.01,5,3,14,0.02
2013-6-10,85.0,82.1,79.0,78.0,75.9,74.0,87,82,76,30.07,29.99,5,2,14,0.01
2013-6-11,86.0,81.6,79.0,77.0,75.7,73.0,89,83,70,30.07,29.99,9,2,16,0.01
2013-6-12,84.0,79.8,77.0,78.0,75.5,74.0,94,87,80,30.06,29.99,6,0,11,0.65
2013-6-13,85.0,79.8,76.0,76.0,74.4,71.0,93,84,70,30.05,29.93,6,1,13,0.01
2013-6-14,89.0,80.1,75.0,77.0,73.6,71.0,91,81,57,29.96,29.86,11,2,18,0.84
2013-6-15,86.0,80.6,76.0,77.0,74.5,73.0,93,82,72,30.04,29.91,4,1,11,0.85
2013-6-16,87.0,82.5,77.0,78.0,75.3,73.0,91,80,69,30.07,29.99,6,1,11,0.01
2013-6-17,87.0,83.5,81.0,77.0,75.1,73.0,81,76,69,30.07,29.99,5,2,11,0.00
2013-6-18,87.0,83.3,81.0,77.0,75.6,74.0,82,78,71,30.06,29.97,7,3,13,0.00
2013-6-19,87.0,83.3,80.0,77.0,75.7,74.0,87,78,70,30.03,29.97,7,3,13,0.01
2013-6-20,86.0,80.3,74.0,77.0,74.1,71.0,91,82,72,30.06,30.00,7,2,18,1.53
2013-6-22,86.0,84.8,82.0,76.0,74.8,73.0,81,72,68,30.08,30.02,5,1,11,0.03
2013-6-23,87.0,83.0,79.0,76.0,73.9,68.0,82,74,67,30.10,30.03,7,3,15,0.01
2013-6-24,87.0,82.7,80.0,76.0,73.9,72.0,81,75,65,30.14,30.06,6,2,13,0.01
2013-6-25,86.0,82.5,81.0,77.0,74.6,73.0,82,77,70,30.10,30.01,8,2,15,0.01
2013-6-26,87.0,83.0,80.0,76.0,74.6,72.0,83,76,68,30.06,29.99,6,3,14,0.03
2013-6-27,86.0,82.5,81.0,76.0,74.6,73.0,81,77,70,30.03,29.94,4,1,10,0.03
2013-6-28,87.0,82.9,79.0,77.0,74.6,72.0,85,76,62,29.98,29.85,7,2,13,0.02
2013-6-29,87.0,82.2,78.0,77.0,75.2,72.0,88,80,70,29.89,29.83,8,3,15,0.13
2013-6-30,86.0,81.9,79.0,77.0,75.1,73.0,86,80,72,29.93,29.84,12,6,26,0.27
2013-7-1,86.0,82.4,80.0,78.0,75.6,72.0,85,80,73,30.01,29.90,10,5,20,0.01
2013-7-2,86.0,82.1,77.0,78.0,76.0,70.0,87,82,73,30.09,29.96,6,3,14,0.12
2013-7-3,86.0,81.4,78.0,78.0,75.0,72.0,87,81,71,30.10,30.03,11,4,21,0.28
2013-7-4,87.0,82.8,74.0,77.0,74.6,70.0,89,77,69,30.13,30.05,11,4,26,0.32
2013-7-5,85.0,81.2,75.0,77.0,74.8,72.0,90,81,73,30.13,30.03,8,3,18,0.59
2013-7-6,86.0,82.6,79.0,76.0,74.2,72.0,83,76,69,30.10,30.01,6,3,16,0.01
2013-7-7,87.0,83.1,80.0,77.0,74.5,73.0,81,76,70,30.08,30.00,4,2,14,0.03
2013-7-8,87.0,82.0,80.0,75.0,71.7,-99.9,78,73,64,30.12,30.05,5,2,13,0.03
2013-7-9,84.0,80.2,76.0,75.0,72.7,70.0,89,78,69,30.12,30.03,5,1,11,0.15
2013-7-10,83.0,77.9,75.0,76.0,70.6,-99.9,92,81,77,30.07,29.98,5,1,13,0.14
2013-7-11,87.0,82.4,80.0,77.0,74.6,72.0,84,78,70,30.03,29.93,5,2,13,0.01
2013-7-12,86.0,81.0,77.0,76.0,73.7,69.0,87,79,66,29.96,29.89,10,1,18,0.25
2013-7-13,84.0,75.6,72.0,76.0,72.3,70.0,95,90,77,30.01,29.90,11,2,19,3.95
2013-7-14,86.0,78.1,72.0,76.0,72.8,69.0,95,84,69,30.07,29.97,9,3,20,1.55
2013-7-15,87.0,79.9,74.0,75.0,72.7,69.0,93,79,62,30.07,29.99,5,1,14,0.18
2013-7-16,81.0,77.8,73.0,74.0,71.5,70.0,91,81,69,30.11,30.02,7,2,17,1.28
2013-7-17,80.0,76.1,72.0,74.0,72.2,70.0,93,88,79,30.13,30.02,7,1,13,2.52
2013-7-18,83.0,75.4,71.0,78.0,72.7,69.0,94,91,78,30.11,30.03,7,1,15,1.89
2013-7-19,85.0,80.7,74.0,77.0,75.7,72.0,95,85,75,30.11,30.03,7,2,16,1.14
2013-7-20,85.0,81.0,78.0,78.0,74.4,-99.9,87,82,72,30.10,30.01,10,4,17,0.01
2013-7-21,86.0,82.3,80.0,78.0,76.4,74.0,87,83,77,30.13,30.03,7,2,14,0.01
2013-7-22,86.0,82.5,80.0,77.0,75.2,74.0,84,79,73,30.13,30.05,7,2,14,0.00
2013-7-23,86.0,82.2,78.0,78.0,75.3,73.0,88,80,67,30.09,29.96,9,3,16,0.07
2013-7-24,89.0,83.4,79.0,79.0,75.4,72.0,88,77,59,30.01,29.89,7,2,16,0.03
2013-7-25,92.0,83.8,77.0,77.0,73.6,71.0,88,73,54,30.00,29.90,3,1,13,0.03
2013-7-26,90.0,81.8,77.0,77.0,75.0,72.0,89,81,63,30.01,29.91,11,1,19,0.18
2013-7-27,83.0,79.1,76.0,78.0,74.9,73.0,92,87,82,30.00,29.92,10,1,18,1.43
2013-7-28,86.0,81.7,77.0,77.0,75.2,72.0,90,81,71,30.06,29.93,7,1,12,0.01
2013-7-29,87.0,83.1,79.0,79.0,76.4,75.0,88,80,71,30.11,30.00,4,1,11,0.01
2013-7-30,87.0,83.3,78.0,79.0,76.8,73.0,89,81,74,30.14,30.05,5,1,14,0.72
2013-7-31,88.0,84.1,82.0,78.0,75.7,73.0,83,76,69,30.09,29.98,7,2,14,0.19
2013-8-1,86.0,82.8,80.0,76.0,74.2,72.0,81,76,69,30.04,29.92,4,1,13,0.07
2013-8-2,86.0,80.6,76.0,77.0,74.0,70.0,91,81,68,30.04,29.90,10,2,19,0.20
2013-8-3,85.0,78.8,74.0,78.0,74.6,71.0,92,87,75,30.10,30.00,9,1,15,0.46
2013-8-4,88.0,81.5,77.0,78.0,75.2,72.0,92,82,67,30.10,29.97,8,1,15,0.06
2013-8-5,88.0,81.6,79.0,78.0,75.2,71.0,90,81,69,30.02,29.93,8,1,16,0.08
2013-8-6,89.0,82.4,78.0,79.0,75.4,72.0,90,80,69,29.97,29.88,7,1,15,0.02
2013-8-7,86.0,83.1,80.0,77.0,75.5,72.0,86,78,70,29.96,29.88,7,2,14,0.00
2013-8-8,88.0,84.2,81.0,77.0,75.4,72.0,82,75,65,29.99,29.90,5,3,15,0.03
2013-8-9,86.0,82.1,79.0,76.0,73.7,71.0,81,76,69,30.04,29.93,11,3,17,0.02
2013-8-10,88.0,84.4,81.0,77.0,75.8,73.0,82,76,68,30.10,30.01,6,3,14,0.01
2013-8-11,89.0,84.6,82.0,78.0,76.2,74.0,82,76,69,30.11,30.04,7,2,14,0.00
2013-8-21,88.0,83.4,81.0,79.0,76.9,75.0,87,81,74,30.05,29.98,6,2,17,0.31
2013-8-22,87.0,84.1,80.0,78.0,76.8,73.0,87,79,73,30.04,29.93,5,2,15,0.05
2013-8-23,87.0,83.7,82.0,77.0,76.0,74.0,82,78,71,29.99,29.91,4,1,12,0.00
2013-8-24,88.0,84.2,82.0,78.0,75.9,73.0,82,76,70,30.08,29.95,5,1,13,0.00
2013-8-25,85.0,80.2,77.0,77.0,71.5,-99.9,90,78,72,30.12,30.00,4,1,11,0.01
2013-8-26,86.0,81.6,78.0,77.0,73.9,72.0,83,78,71,30.10,29.99,8,1,18,0.01
2013-8-27,83.0,79.1,76.0,74.0,72.9,69.0,89,82,67,30.02,29.96,3,1,11,0.13
2013-10-2,81.0,79.8,75.0,75.0,73.9,73.0,93,83,76,30.02,29.94,5,1,13,2.21
2013-10-3,83.0,79.9,75.0,77.0,73.8,72.0,92,82,75,30.03,29.92,5,0,11,0.76
2013-10-4,84.0,81.4,79.0,74.0,71.9,70.0,80,73,68,30.03,29.96,2,0,7,0.01
2013-10-5,85.0,81.2,75.0,74.0,72.2,70.0,85,75,65,30.01,29.91,4,0,10,0.00
2013-10-6,86.0,81.8,78.0,74.0,72.3,69.0,87,74,66,29.94,29.85,3,1,9,0.02
2013-10-7,87.0,80.3,75.0,77.0,73.1,71.0,92,79,60,29.88,29.79,7,2,17,0.60
2013-10-8,86.0,81.1,76.0,77.0,74.4,70.0,91,81,69,29.91,29.83,5,1,12,0.64
2013-10-18,85.0,80.7,77.0,74.0,71.6,70.0,83,74,66,29.96,29.88,4,1,12,0.00
2013-10-19,85.0,81.5,79.0,76.0,72.9,71.0,80,76,70,29.95,29.86,6,2,14,0.00
2013-10-20,87.0,78.9,76.0,78.0,71.7,-99.9,92,82,73,29.95,29.85,5,1,16,1.63
2013-10-21,86.0,81.9,78.0,78.0,75.5,73.0,88,81,73,29.98,29.89,7,2,12,0.01
2013-10-22,85.0,81.6,78.0,78.0,75.7,74.0,88,82,74,29.95,29.82,8,3,16,0.17
2013-10-23,85.0,79.9,77.0,76.0,73.7,70.0,91,82,69,29.93,29.80,5,1,12,0.70
2013-10-24,79.0,77.1,74.0,70.0,67.0,65.0,78,71,64,30.06,29.91,5,3,13,0.02
2013-10-25,81.0,77.5,71.0,69.0,65.2,63.0,84,66,60,30.12,30.05,6,4,17,0.03
2013-10-26,81.0,77.5,76.0,66.0,63.8,61.0,68,63,58,30.12,30.03,5,2,12,0.03
2013-10-27,81.0,74.3,69.0,67.0,61.1,-99.9,78,66,57,30.07,30.00,3,1,10,0.00
2013-10-28,82.0,76.6,75.0,69.0,63.0,-99.9,70,66,55,30.11,30.03,4,1,10,0.00
2013-10-29,82.0,78.7,76.0,71.0,67.6,65.0,72,69,64,30.15,30.06,4,1,13,0.00
2013-10-30,82.0,78.9,77.0,70.0,67.7,66.0,75,69,62,30.15,30.06,3,1,12,0.00